www.pogodaiklimat.ru

Погода и климат >> Архив погоды >> Сенегал >> Каолак


ПОГОДА в Каолаке

  • Прогноз погоды в Каолаке
  • Монитор погоды в Каолаке

АРХИВ ПОГОДЫ в Каолаке

Время (UTC), дата Ветер
(напр.,м/с)
 
Видим.   Явления Облачность Т
(С)
Тd
(С)
f
(%)
Тe
(С)
Тes
(С)
Комфортность P
(гПа)
Po
(гПа)
Тmin
(С)
Tmax
(С)
R
(мм)
R24
(мм)
S
(см)
09 11.08 З 2 10 км 5/5 400 м
[Sc]
+28.5 +23.5 74 +39 +42 очень
душно
1014.0 1013.2
12 11.08 ЮЗ 6 10 км 3/0
[Ci sp]
+34.0 +21.6 48 +42 +49 опасность
перегрева
1013.9 1013.1
15 11.08 ЮЗ 6 10 км 6/5 400 м
[Sc Ci sp]
+36.0 +22.4 46 +45 +48 опасность
перегрева
1012.1 1011.3
18 11.08 ЮЗ 7 10 км 6/4 400 м
[Cu med, cong Ci sp]
+33.4 +22.8 54 +43 +44 опасность
перегрева
1011.2 1010.4 +36.5
21 11.08 ЮЗ 6 10 км зарница 8/4 400 м
[Cb calv Ci sp]
+29.8 +23.6 69 +40 +40 очень
душно
1013.7 1012.9
00 12.08 штиль 0 8000 м гроза, ливневой дождь 10/3 400 м
[Cb cap Ac As]
+23.5 +22.0 91 +30 +30 очень
душно
1014.7 1013.9 30
03 12.08 штиль 0 10 км {гроза, дождь} 9/6 400 м
[Sc Ac As]
+24.0 +22.5 91 +31 +31 очень
душно
1013.5 1012.7
06 12.08 штиль 0 10 км {гроза, дождь} 6/0
[Ac As]
+24.5 +23.0 91 +32 +32 очень
душно
1013.3 1012.5 +22.6 32
09 12.08 штиль 0 10 км 8/4 400 м
[Cu med, cong Ac As Ci sp]
+25.9 +24.0 89 +36 +39 очень
душно
1014.9 1014.1
12 12.08 штиль 0 10 км 8/6 400 м
[Cu med, cong Ac trans Ci sp]
+29.9 +25.3 76 +43 +52 опасность
перегрева
1014.8 1014.0
18 12.08 СЗ 2 10 км 8/8 400 м
[Cu med, cong]
+33.2 +23.5 57 +44 +45 опасность
перегрева
1012.7 1011.9 +33.5
21 12.08 З 4 10 км 6/4 540 м
[Cu med, cong Ac As Ci sp]
+29.0 +24.0 74 +40 +40 очень
душно
1014.4 1013.6
00 13.08 З 7 10 км 4/0
[Ac As Ci sp]
+27.6 +23.9 80 +38 +38 очень
душно
1015.9 1015.1
03 13.08 З 5 10 км 6/3 400 м
[Sc Ac As]
+26.5 +23.6 84 +36 +36 очень
душно
1015.4 1014.6
06 13.08 З 3 10 км 4/3 400 м
[Sc Ci sp]
+27.2 +24.0 83 +38 +38 очень
душно
1013.7 1012.9 +27.0
09 13.08 С 2 10 км 6/6 400 м
[Sc]
+28.8 +23.9 75 +40 +42 очень
душно
1014.8 1014.0
12 13.08 СЗ 2 10 км 8/8 300 м
[Cu med, cong]
+31.1 +23.8 65 +42 +46 опасность
перегрева
1014.9 1014.1
18 13.08 З 5 10 км 4/4 400 м
[Cu med, cong]
+34.0 +23.3 54 +45 +45 опасность
перегрева
1010.9 1010.1 +35.5
21 13.08 СЗ 5 10 км ясно +29.5 +23.8 71 +40 +40 очень
душно
1012.3 1011.5
00 14.08 З 7 10 км ясно +27.6 +23.9 80 +38 +38 очень
душно
1014.5 1013.7
03 14.08 З 6 10 км 5/3 400 м
[Sc Ci sp]
+27.0 +24.1 84 +37 +37 очень
душно
1014.3 1013.5
06 14.08 З 5 10 км 6/5 400 м
[Sc Ci sp]
+26.0 +23.8 88 +36 +36 очень
душно
1013.7 1012.9 +26.0
09 14.08 З 3 10 км 8/6 450 м
[Sc Ac As Ci sp]
+27.1 +21.3 71 +34 +36 очень
душно
1013.8 1013.0
12 14.08 З 2 10 км 4/4 450 м
[Sc]
+30.3 +22.0 61 +39 +51 опасность
солнечного
удара
1013.6 1012.8
15 14.08 З 2 10 км 5/0 300 м
[Ci sp]
+32.5 +21.5 52 +40 +56 опасность
солнечного
удара
1010.8 1010.0
18 14.08 З 5 10 км 5/0
[Ci sp]
+30.8 +22.4 61 +40 +41 очень
душно
1010.4 1009.6 +33.6
21 14.08 СЗ 5 10 км 6/5 450 м
[Sc Ac As Ci sp]
+27.8 +23.0 75 +37 +37 очень
душно
1011.6 1010.8
00 15.08 З 7 10 км 4/4 400 м
[Sc]
+26.8 +22.7 78 +35 +35 очень
душно
1013.7 1012.9
03 15.08 СЗ 4 10 км ясно +26.0 +22.3 80 +34 +34 очень
душно
1012.8 1012.0
06 15.08 З 3 10 км 4/0
[Ci sp]
+25.6 +22.0 81 +33 +33 очень
душно
1012.6 1011.8 +25.5
09 15.08 штиль 0 10 км 9/5 400 м
[Sc Ac As]
+27.5 +23.8 80 +38 +39 очень
душно
1012.3 1011.5
12 15.08 штиль 0 10 км 8/8 400 м
[Cu med, cong Ci sp]
+31.0 +23.9 66 +43 +48 опасность
перегрева
1012.4 1011.6
15 15.08 ЮЗ 2 10 км 5/4 400 м
[Cu med, cong Ci sp]
+35.2 +22.2 47 +44 +54 опасность
перегрева
1010.2 1009.4
18 15.08 З 4 10 км 8/8 400 м
[Cu med, cong]
+32.9 +22.8 55 +43 +43 опасность
перегрева
1010.4 1009.6 +35.4
21 15.08 З 4 10 км 5/3 400 м
[Sc Ac As Ci sp]
+29.5 +23.0 68 +39 +39 очень
душно
1012.3 1011.5
03 16.08 СЗ 4 10 км 5/3 480 м
[Sc Ci sp]
+27.0 +23.9 83 +37 +37 очень
душно
1013.8 1013.0
06 16.08 З 3 10 км 5/0
[Ci sp]
+26.2 +21.3 74 +33 +33 очень
душно
1013.3 1012.5 +26.0
09 16.08 штиль 0 10 км 4/0
[Ci sp]
+28.9 +24.0 75 +40 +47 очень
душно
1013.1 1012.3
12 16.08 штиль 0 10 км 5/5 400 м
[Sc]
+33.4 +23.6 57 +45 +59 опасность
перегрева
1012.6 1011.8
15 16.08 З 2 10 км 8/8 400 м
[Sc]
+35.4 +22.5 47 +44 +48 опасность
перегрева
1010.9 1010.1
18 16.08 З 3 10 км 8/6 400 м
[Cu med, cong Ac As]
+33.8 +23.2 54 +44 +45 опасность
перегрева
1009.8 1009.0 +36.0
21 16.08 СЗ 4 10 км зарница 8/3 400 м
[Cb calv Ac As Ci sp]
+30.0 +22.8 65 +40 +40 очень
душно
1012.3 1011.5
00 17.08 Ю 3 10 км зарница 8/3 400 м
[Cb calv Ac As Ci sp]
+28.2 +22.2 70 +37 +37 очень
душно
1015.3 1014.5
06 17.08 Ю 3 10 км 6/0
[Ac As Ci sp]
+26.2 +21.6 76 +34 +34 очень
душно
1014.7 1012.9 +26.0
09 17.08 ЮЗ 1 10 км 8/8 400 м
[Sc Ac As]
+28.8 +24.5 78 +41 +42 опасность
перегрева
1013.4 1012.6
12 17.08 10 км слаб. дождь н/о +29.4 +24.9 77 +42 +46 опасность
перегрева
1013.7 1012.9 0.9
15 17.08 ЮЗ 2 10 км 8/6 600 м
[Cu med, cong Ac As Ci sp]
+33.8 +23.4 55 +45 +50 опасность
перегрева
1012.3 1011.5
18 17.08 З 3 10 км гроза, ливневой дождь 9/4 450 м
[Cb cap Ac As]
+31.6 +23.6 63 +43 +43 опасность
перегрева
1010.1 1009.3 +34.5 1
21 17.08 З 4 10 км гроза, ливневой дождь 9/4 450 м
[Cb cap Ac As]
+27.0 +22.6 77 +36 +36 очень
душно
1012.6 1011.8
00 18.08 ЮЗ 4 10 км 8/8 450 м
[Sc]
+26.0 +23.1 84 +35 +35 очень
душно
1014.7 1013.9 2
03 18.08 ЮЗ 3 8000 м гроза, ливневой дождь 9/4 450 м
[Cb cap Ac As]
+25.0 +23.7 93 +34 +34 очень
душно
1013.9 1013.1
06 18.08 ЮЗ 4 10 км 9/5 400 м
[Sc Ac As]
+24.5 +23.2 92 +33 +33 очень
душно
1013.0 1012.2 +24.5 7

 

Местоположение метеостанции Каолак (Сенегал): широта 14.13 долгота -16.06 высота над уровнем моря 7 м.

В архиве по умолчанию представлена погода в Каолаке за последнюю неделю. Архивные данные за месяц целиком и за предыдущие месяцы, начиная с января 2011 года, Вы можете получить, выбрав интересующий диапазон дат из раскрывающегося списка и нажав кнопку "Ввод!".


*Определитесь, кто Вы:
робот инопланетянин человек

Внимание! Время в таблицах - всемирное. Для получения местного времени необходимо прибавить поправку, которая равна 0 ч.

Смотрите также архив погоды в соседних городах и на ближайших метеорологических станциях:

Погода в Диурбеле (Сенегал) (61 км)
Погода в Сапу (Гамбия) (64 км)
Погода в Кереване (Гамбия) (71 км)
Погода в Банжуле Half-Die (Гамбия) (87 км)
Погода в Женое (Гамбия) (90 км)
Погода в Кауере (Гамбия) (93 км)
Погода в Сибаноре (Гамбия) (102 км)
Погода в Банжуле (Гамбия) (109 км)
Погода в Джорджтауне (Гамбия) (154 км)
Погода в Дакаре (Сенегал) (169 км)

Пояснения к столбцам:

Ветер - указаны скорость ветра в м/с - средняя за 10 мин, порывы в срок и между сроками (в фигурных скобках) и направление, откуда дует ветер: С - северный, СВ - северо-восточный, В - восточный, ЮВ - юго-восточный, Ю - южный, ЮЗ - юго-западный, З - западный, СЗ - северо-западный.
Видимость - горизонтальная дальность видимости в метрах или километрах. При видимости от 1 до 10 км при отсутствии осадков обычно наблюдается дымка, при ухудшении видимости до 1 км и менее - туман. В сухую погоду видимость может ухудшаться дымом, пылью или мглою.
Явления - указаны атмосферные явления, наблюдавшиеся в срок или в последний час перед сроком; фигурными скобками обозначены явления, наблюдавшиеся между сроками (за 1-3 часа до срока); квадратными скобками обозначены град или гололедные отложения с указанием их диаметра в мм.
Облачность - указаны через наклонную черту общая и нижняя облачность в баллах и высота нижней границы облаков в метрах; квадратными скобками обозначены формы облаков: Ci - перистые, Cs - перисто-слоистые, Cc - перисто-кучевые, Ac - высококучевые, As - высокослоистые, Sc - слоисто-кучевые, Ns - слоисто-дождевые, Cu - кучевые, Cb - кучево-дождевые. Подробнее классификацию облаков см. в Атласе облаков (PDF).
T - Температура воздуха - температура, измеренная на высоте 2 м над землей.
Td - Температура точки росы - температура, при понижении до которой содержащийся в воздухе водяной пар достигнет насыщения.
f - Относительная влажность воздуха - влажноcть воздуха, измеренная на высоте 2 м над землей.
Te - Эффективная температура - температура, которую ощущает одетый по сезону человек в тени. Характеристика душности погоды. При расчете учитывается влияние влажности воздуха и скорости ветра на теплоощущения человека.
Tes - Эффективная температура на солнце - температура, которую ощущает человек, с поправкой на солнечный нагрев. Характеристика знойности погоды. Зависит от высоты солнца над горизонтом, облачности и скорости ветра. Ночью, в пасмурную погоду, а также при ветре 12 м/с и более поправка равна нулю.
P - Атмосферное давление - приведенное к уровню моря атмосферное давление.
Po - Атмосферное давление - измеренное на уровне метеостанции атмосферное давление.
Tmin - Минимальная температура - минимум температуры воздуха на высоте 2 м над землей.
Tmax - Максимальная температура - максимум температуры воздуха на высоте 2 м над землей.
R - Количество осадков - Количество выпавших осадков за период времени, мм. При наведении курсора мыши на число - период времени, за который выпало указанное количество осадков.
R24 - Количество осадков - Количество выпавших осадков за 24 часа, мм.
S - Снежный покров - Высота снежного покрова, см. При наведении курсора мыши на число - состояние снежного покрова и степень покрытия местности в баллах.